Regional Weather Roundup
Issued by NWS State College, PA

Home | Current Version | Previous Version | Text Only | Print | Product List | Glossary On
Versions: 1 2 3 4 5 6 7 8 9 10 11 12 13 14 15 16 17 18 19 20 21 22 23 24 25 26 27 28 29 30 31 32 33 34 35 36 37 38 39 40 41 42 43 44 45 46 47 48 49 50
000
ASUS41 KCTP 102210
RWRCTP

REGIONAL WEATHER ROUNDUP
NATIONAL WEATHER SERVICE STATE COLLEGE PA
600 PM EDT THU JUL 10 2014

Note: "fair" indicates few or no clouds below 12,000 feet with no
significant weather and/or obstructions to visibility.

* = STATION THAT DOES NOT REPORT PRECIPITATION /E.G. RAIN...SNOW...ETC/
    THUNDER OR FOG.

PAZ002>004-007>009-013>016-020>023-029>032-102300-
WESTERN PENNSYLVANIA

CITY           SKY/WX    TMP DP  RH WIND       PRES   REMARKS
ERIE           MOSUNNY   73  51  46 NE14      30.14F
MEADVILLE      SUNNY     75  57  53 N9        30.14S
FRANKLIN*      MOSUNNY   75  52  43 N5        30.14S
NEW CASTLE     NOT AVBL
BEAVER COUNTY  SUNNY     79  54  41 CALM      30.10F
BUTLER*        SUNNY     79  57  47 N3        30.12S
PITTSBURGH INT MOSUNNY   79  56  45 VRB6      30.09F
PITTSBURGH     MOSUNNY   80  55  42 VRB3      30.08F
INDIANA*       SUNNY     79  57  47 NW9       30.14S
LATROBE        MOSUNNY   81  59  47 N7        30.09F
WASHINGTON CO* SUNNY     79  59  50 N6        30.10S
$$

PAZ004>006-010>012-017>019-024>028-033>037-041-042-045-046-049>053-102300-
CENTRAL PENNSYLVANIA

CITY           SKY/WX    TMP DP  RH WIND       PRES   REMARKS
BRADFORD       PTSUNNY   73  53  49 N7        30.15F
DUBOIS         MOSUNNY   78  54  43 N8        30.12F
CLEARFIELD     PTSUNNY   76  60  57 E7        30.12S
JOHNSTOWN      CLOUDY    75  56  51 N6        30.13S
ALTOONA        MOSUNNY   72  61  68 E5        30.12S
STATE COLLEGE  CLOUDY    72  64  78 E3        30.12S
WILLIAMSPORT   CLOUDY    78  59  51 E6        30.08F
SELINSGROVE    CLOUDY    78  62  57 N5        30.08F
FT INDIANTOWN  PTSUNNY   81  64  55 NE9       30.06F
CAPITAL CITY   CLOUDY    81  61  50 E8        30.04F
HARRISBURG     PTSUNNY   83  61  47 NE6       30.04S
YORK           PTSUNNY   83  60  45 E8        30.05S
$$

PAZ038>040-043-044-047-048-054-055-060>062-067>071-102300-
EASTERN PENNSYLVANIA

CITY           SKY/WX    TMP DP  RH WIND       PRES   REMARKS
SCRANTON       PTSUNNY   78  57  48 N7        30.12S
MOUNT POCONO   PTSUNNY   69  61  75 NE6       30.15F
ALLENTOWN      CLOUDY    73  66  78 NE10      30.09R
QUAKERTOWN*    MOCLDY    81  63  54 E3        30.08F
READING        MOSUNNY   81  62  52 NE9       30.05F
LANCASTER      MOSUNNY   83  60  45 E6        30.05F
COATESVILLE    PTCLDY    81  63  54 SE5       30.08S
POTTSTOWN      MOSUNNY   81  61  50 E5        30.08S
BLUE BELL      SUNNY     84  61  45 SE7       30.06S
DOYLESTOWN     SUNNY     81  62  52 VRB3      30.07S
WILLOW GROVE   NOT AVBL
NORTH PHILA    MOSUNNY   85  60  42 E10       30.08S
PHILADELPHIA   PTSUNNY   84  62  47 SE10      30.06S
$$


USA.gov is the U.S. government's official web portal to all federal, state and local government web resources and services.